PBO Station Position Time Series. Reference Frame : NAM14
Format Version,1.1.0
4-character ID,IDTD
Station name,Idaho_DOT
Begin Date, 2001-05-14
End Date, 2019-10-03
Release Date, 2019-10-08
Reference position, 43.6529419553 North Latitude, -116.2834082143 East Longitude, 788.64418 meters elevation,
Date, North (mm), East (mm), Vertical (mm), North Std. Deviation (mm), East Std. Deviation (mm),              Vertical Std. Deviation (mm), Quality,
2001-05-14,0.00, 0.00, 0.00, 2.17, 1.62, 7.40, repro,
2001-05-15,0.81, -0.69, 3.31, 2.19, 1.62, 7.47, repro,
2001-05-16,1.50, 0.69, -0.97, 2.22, 1.68, 7.71, repro,
2001-05-17,3.20, 0.00, -1.33, 2.25, 1.72, 7.82, repro,
2001-05-18,2.38, -0.31, 0.04, 2.16, 1.61, 7.36, repro,
2001-05-19,-0.34, -0.58, 0.06, 2.14, 1.62, 7.41, repro,
2001-05-20,-1.33, -1.42, 0.70, 2.20, 1.62, 7.46, repro,
2001-05-21,3.04, -1.21, -3.57, 2.16, 1.63, 7.49, repro,
2001-05-22,-0.00, -0.22, -2.27, 2.93, 2.24, 9.97, repro,
2001-05-29,1.06, -0.98, -5.11, 5.02, 4.06, 19.71, repro,
2001-06-04,1.61, 1.26, 17.32, 6.16, 4.99, 18.96, repro,
2001-06-07,-0.30, -4.03, -10.76, 3.64, 2.94, 13.18, repro,
2001-06-08,-3.45, -3.51, 2.51, 2.22, 1.65, 7.59, repro,
2001-06-09,-1.08, -2.73, -3.58, 2.25, 1.66, 7.70, repro,
2001-06-10,-2.78, -3.19, 3.48, 2.23, 1.65, 7.60, repro,
2001-06-11,-1.36, -3.65, -2.30, 2.23, 1.65, 7.59, repro,
2001-06-12,-2.20, -3.15, 2.10, 2.29, 1.69, 7.79, repro,
2001-06-13,-2.47, -3.37, 3.80, 2.21, 1.66, 7.51, repro,
2001-06-14,-2.79, -3.01, -0.18, 2.23, 1.65, 7.61, repro,
2001-06-15,-2.35, -3.00, 1.81, 2.22, 1.66, 7.54, repro,
2001-06-16,-1.78, -3.69, -0.73, 2.23, 1.64, 7.55, repro,
2001-06-17,-2.13, -3.17, -5.29, 2.29, 1.65, 7.62, repro,
2001-06-18,-1.86, -2.85, -3.50, 2.23, 1.65, 7.60, repro,
2001-06-19,-2.61, -2.46, -2.97, 2.23, 1.69, 7.65, repro,
2001-06-20,-2.11, -3.31, -5.89, 2.26, 1.70, 7.81, repro,
2001-06-21,-3.25, -3.14, 3.20, 2.19, 1.67, 7.57, repro,
2001-06-22,-3.65, -2.83, -3.19, 2.18, 1.63, 7.48, repro,
2001-06-23,-2.85, -2.79, 1.54, 2.25, 1.70, 7.79, repro,
2001-06-24,-3.86, -2.68, 4.95, 2.18, 1.65, 7.47, repro,
2001-06-25,-2.31, -1.38, -3.63, 2.16, 1.63, 7.42, repro,
2001-06-26,-2.24, -1.12, 4.25, 2.18, 1.64, 7.44, repro,
2001-06-27,-4.30, -1.31, 5.15, 2.22, 1.67, 7.58, repro,
2001-06-28,-4.45, -1.81, -4.99, 2.16, 1.63, 7.45, repro,
2001-06-29,-2.02, -2.02, -5.37, 2.16, 1.63, 7.42, repro,
2001-06-30,-2.40, -1.59, 1.00, 2.15, 1.63, 7.36, repro,
2001-07-01,-1.00, -2.08, -2.20, 2.15, 1.62, 7.34, repro,
2001-07-02,-1.56, -1.74, -4.17, 2.15, 1.62, 7.33, repro,
2001-07-03,-2.49, -2.08, -1.84, 2.18, 1.65, 7.40, repro,
2001-07-04,-3.07, -2.36, -10.70, 2.17, 1.62, 7.39, repro,
2001-07-05,-1.93, -3.73, -1.31, 2.20, 1.67, 7.56, repro,
2001-07-06,-2.65, -4.24, 0.63, 2.18, 1.64, 7.46, repro,
2001-07-07,-2.70, -2.89, -1.06, 2.23, 1.69, 7.55, repro,
2001-07-08,-2.70, -3.89, -7.37, 2.21, 1.67, 7.53, repro,
2001-07-09,-3.12, -3.17, -9.17, 2.14, 1.61, 7.29, repro,
2001-07-10,-3.75, -3.97, -8.91, 2.39, 1.81, 8.14, repro,
2001-07-11,-2.35, -3.71, -2.89, 2.17, 1.63, 7.44, repro,
2001-07-12,-3.70, -2.99, 3.74, 2.23, 1.65, 7.63, repro,
2001-07-13,-2.71, -3.39, -11.13, 2.28, 1.67, 7.64, repro,
2001-07-14,-3.87, -3.66, -3.80, 2.19, 1.65, 7.43, repro,
2001-07-15,-2.88, -3.78, -0.77, 2.18, 1.63, 7.41, repro,
2001-07-16,-2.77, -3.87, 2.36, 2.16, 1.63, 7.40, repro,
2001-07-17,-4.46, -2.49, -3.15, 2.24, 1.65, 7.58, repro,
2001-07-18,-3.80, -2.17, -2.84, 2.20, 1.65, 7.46, repro,
2001-07-19,-3.98, -3.74, -11.35, 2.16, 1.62, 7.34, repro,
2001-07-20,-4.67, -4.88, -6.30, 2.28, 1.68, 7.57, repro,
2001-07-21,-3.92, -4.52, -4.84, 2.17, 1.63, 7.38, repro,
2001-07-22,-3.19, -3.42, -3.58, 2.17, 1.63, 7.39, repro,
2001-07-23,-3.99, -3.25, -5.20, 2.21, 1.65, 7.44, repro,
2001-07-24,-4.83, -3.78, -4.57, 2.16, 1.61, 7.32, repro,
2001-07-25,-4.99, -5.22, -3.52, 2.17, 1.61, 7.32, repro,
2001-07-26,-4.78, -3.32, -3.35, 2.29, 1.69, 7.66, repro,
2001-07-27,-4.40, -3.91, -11.62, 2.27, 1.74, 7.68, repro,
2001-07-28,-3.77, -4.21, -6.25, 2.26, 1.72, 7.76, repro,
2001-07-29,-4.19, -4.47, -6.66, 2.39, 1.78, 8.08, repro,
2001-07-30,-5.98, -4.47, -4.12, 2.36, 1.73, 7.89, repro,
2001-07-31,-5.66, -4.44, -2.00, 2.34, 1.75, 7.95, repro,
2001-08-01,-5.07, -4.02, -2.61, 2.23, 1.67, 7.62, repro,
2001-08-02,-5.09, -4.38, -8.97, 2.23, 1.68, 7.59, repro,
2001-08-03,-6.21, -4.59, 5.75, 2.24, 1.68, 7.61, repro,
2001-08-04,-3.04, -4.89, 3.99, 2.33, 1.73, 7.88, repro,
2001-08-05,-3.53, -4.62, -11.47, 2.34, 1.73, 7.84, repro,
2001-08-06,-4.92, -5.33, -4.86, 2.29, 1.71, 7.71, repro,
2001-08-07,-3.81, -4.91, -2.32, 2.34, 1.75, 7.86, repro,
2001-08-08,-5.46, -4.62, -13.43, 2.31, 1.76, 7.84, repro,
2001-08-09,-4.37, -4.63, -0.50, 2.37, 1.76, 8.00, repro,
2001-08-10,-4.74, -5.36, -4.56, 2.42, 1.78, 8.04, repro,
2001-08-11,-5.08, -5.03, -6.33, 2.36, 1.71, 7.82, repro,
2001-08-12,-3.99, -4.82, -6.45, 2.28, 1.65, 7.56, repro,
2001-08-13,-5.44, -4.47, -5.92, 2.31, 1.68, 7.64, repro,
2001-08-14,-5.14, -4.57, -2.76, 2.27, 1.69, 7.53, repro,
2001-08-15,-3.96, -5.74, 3.22, 2.34, 1.72, 7.85, repro,
2001-08-16,-4.89, -5.94, -5.69, 2.38, 1.73, 7.86, repro,
2001-08-17,-4.41, -4.51, -7.87, 2.32, 1.69, 7.65, repro,
2001-08-18,-5.98, -6.37, -9.58, 2.42, 1.80, 8.05, repro,
2001-08-19,-6.07, -4.15, -5.29, 2.31, 1.68, 7.58, repro,
2001-08-20,-5.70, -5.11, 1.84, 2.43, 1.76, 7.92, repro,
2001-08-21,-5.82, -5.41, -0.96, 2.46, 1.80, 8.09, repro,
2001-08-22,-4.98, -5.62, -5.33, 2.34, 1.69, 7.69, repro,
2001-08-23,-6.01, -5.26, -1.79, 2.35, 1.68, 7.66, repro,
2001-08-24,-5.34, -4.49, -5.26, 2.38, 1.74, 7.68, repro,
2001-08-25,-5.32, -4.89, -4.60, 2.31, 1.67, 7.60, repro,
2001-08-26,-5.87, -4.81, -7.06, 2.54, 1.84, 8.28, repro,
2001-08-27,-4.97, -5.30, -6.79, 2.36, 1.73, 7.77, repro,
2001-08-28,-4.43, -5.64, 0.28, 2.69, 1.89, 8.57, repro,
2001-08-29,-4.29, -4.49, -8.21, 2.52, 1.74, 8.05, repro,
2001-08-30,-4.91, -6.02, -9.69, 2.62, 1.88, 8.52, repro,
2001-08-31,-5.19, -4.86, 4.43, 2.61, 1.81, 8.26, repro,
2001-09-01,-5.75, -4.67, -1.93, 2.31, 1.69, 7.70, repro,
2001-09-02,-5.20, -5.55, -0.68, 2.36, 1.74, 7.82, repro,
2001-09-03,-5.11, -4.87, -3.05, 2.36, 1.69, 7.78, repro,
2001-09-04,-5.70, -5.63, -2.42, 2.38, 1.75, 7.97, repro,
2001-09-05,-6.12, -5.63, 4.59, 2.50, 1.92, 8.29, repro,
2001-09-06,-4.57, -5.64, -1.90, 2.31, 1.68, 7.70, repro,
2001-09-07,-4.72, -4.45, -6.52, 2.23, 1.67, 7.56, repro,
2001-09-08,-4.92, -4.99, -0.56, 2.21, 1.66, 7.49, repro,
2001-09-09,-5.12, -4.75, -0.49, 2.26, 1.70, 7.56, repro,
2001-09-10,-5.47, -4.89, -3.84, 2.16, 1.60, 7.30, repro,
2001-09-11,-5.93, -5.15, -1.98, 2.24, 1.71, 7.67, repro,
2001-09-12,-5.17, -4.47, 1.17, 2.27, 1.72, 7.79, repro,
2001-09-13,-5.77, -4.43, 3.19, 2.25, 1.68, 7.63, repro,
2001-09-14,-5.57, -4.41, -1.60, 2.18, 1.61, 7.31, repro,
2001-09-15,-4.72, -5.35, 0.40, 2.20, 1.64, 7.37, repro,
2001-09-16,-6.48, -4.88, 1.25, 2.20, 1.63, 7.36, repro,
2001-09-17,-5.83, -5.99, 8.72, 2.21, 1.65, 7.50, repro,
2001-09-18,-3.64, -5.00, 4.50, 2.21, 1.65, 7.50, repro,
2001-09-19,-5.73, -4.65, 3.86, 2.21, 1.64, 7.46, repro,
2001-09-20,-4.76, -5.59, 4.76, 2.29, 1.72, 7.75, repro,
2001-09-21,-6.60, -4.97, -3.20, 2.18, 1.64, 7.45, repro,
2001-09-22,-5.76, -5.53, 3.80, 2.16, 1.61, 7.38, repro,
2001-09-23,-5.13, -5.08, 1.61, 2.24, 1.65, 7.52, repro,
2001-09-24,-5.95, -4.10, -0.35, 2.19, 1.61, 7.41, repro,
2001-09-25,-5.50, -5.27, 11.07, 2.20, 1.65, 7.44, repro,
2001-09-26,-6.48, -5.97, 7.04, 2.20, 1.66, 7.53, repro,
2001-09-27,-5.95, -4.68, 10.23, 2.21, 1.69, 7.54, repro,
2001-09-28,-5.37, -4.99, 3.22, 2.21, 1.67, 7.55, repro,
2001-09-29,-5.37, -5.64, 5.30, 2.28, 1.74, 7.89, repro,
2001-09-30,-4.99, -4.05, -1.90, 2.19, 1.63, 7.45, repro,
2001-10-01,-6.24, -5.90, 6.14, 2.22, 1.68, 7.55, repro,
2001-10-02,-6.61, -5.35, 10.83, 2.21, 1.65, 7.46, repro,
2001-10-03,-5.98, -5.14, 5.98, 2.40, 1.74, 7.98, repro,
2001-10-04,-5.14, -4.75, 1.85, 2.42, 1.70, 7.90, repro,
2001-10-05,-6.01, -4.71, 5.05, 2.29, 1.66, 7.64, repro,
2001-10-06,-5.53, -5.31, 10.69, 2.34, 1.72, 7.68, repro,
2001-10-07,-5.53, -5.28, 6.23, 2.35, 1.72, 7.76, repro,
2001-10-08,-6.47, -5.16, 9.38, 2.35, 1.69, 7.66, repro,
2001-10-09,-4.82, -5.16, 7.16, 2.28, 1.68, 7.59, repro,
2001-10-10,-4.80, -3.69, -3.90, 2.34, 1.69, 7.69, repro,
2001-10-11,-4.44, -4.73, 5.33, 2.22, 1.66, 7.50, repro,
2001-10-12,-5.41, -3.87, 1.46, 2.33, 1.67, 7.63, repro,
2001-10-13,-3.86, -6.88, 7.91, 2.24, 1.67, 7.51, repro,
2001-10-14,-5.32, -5.37, 6.77, 2.23, 1.65, 7.47, repro,
2001-10-15,-2.63, -2.47, -3.42, 2.39, 1.72, 7.76, repro,
2001-10-16,-4.38, -4.17, -4.16, 2.41, 1.76, 7.91, repro,
2001-10-17,-3.69, -5.37, 5.69, 2.48, 1.80, 8.01, repro,
2001-10-18,-4.35, -3.99, 2.36, 2.46, 1.73, 7.93, repro,
2001-10-19,-2.71, -3.48, 4.33, 2.68, 1.96, 8.69, repro,
2001-10-20,-4.32, -3.53, 3.07, 2.46, 1.73, 7.97, repro,
2001-10-21,-2.97, -4.37, 7.82, 2.55, 1.93, 9.19, repro,
2001-10-22,-1.69, -3.91, 5.53, 2.72, 1.98, 9.15, repro,
2001-10-23,-4.54, -3.93, 12.98, 2.48, 1.75, 7.98, repro,
2001-10-24,-5.09, -3.79, 11.40, 2.51, 1.77, 8.15, repro,
2001-10-25,-2.21, -3.68, -0.18, 2.62, 1.95, 8.63, repro,
2001-10-26,-3.11, -3.31, -1.94, 2.61, 1.86, 8.44, repro,
2001-10-27,-2.95, -1.62, 4.29, 2.45, 1.77, 7.93, repro,
2001-10-28,-1.28, -3.35, 6.58, 2.69, 2.03, 9.16, repro,
2001-10-29,-2.42, -2.73, -1.39, 2.43, 1.79, 7.99, repro,
2001-10-30,-2.50, -2.41, -2.61, 2.29, 1.74, 7.84, repro,
2001-10-31,-2.17, -2.66, 10.00, 2.36, 1.72, 7.90, repro,
2001-11-01,-3.70, -4.20, 16.92, 2.36, 1.76, 7.98, repro,
2001-11-02,-0.87, -3.09, 7.20, 2.34, 1.77, 7.83, repro,
2001-11-03,-1.02, -3.07, 0.80, 2.50, 1.86, 8.40, repro,
2001-11-04,-0.12, -2.28, 0.69, 2.45, 1.79, 8.28, repro,
2001-11-05,-1.49, -1.69, 5.98, 2.71, 2.11, 9.59, repro,
2001-11-06,-1.76, -2.30, 10.87, 2.80, 2.05, 9.43, repro,
2001-11-07,-2.27, -2.89, -1.85, 2.70, 2.03, 9.60, repro,
2001-11-08,-1.56, -2.88, 2.05, 3.01, 2.27, 11.45, repro,
2001-11-09,-0.70, -2.18, 9.00, 3.07, 2.37, 11.95, repro,
2001-11-10,-0.02, -1.72, 6.69, 4.07, 3.47, 16.60, repro,
2001-11-11,-0.62, -2.86, -2.48, 3.21, 2.55, 13.05, repro,
2001-11-12,0.84, -2.22, 10.28, 3.63, 2.84, 14.67, repro,
2001-11-13,-1.49, -2.69, 7.50, 3.21, 2.49, 12.39, repro,
2001-11-14,-1.96, -2.70, 7.93, 2.91, 2.15, 10.75, repro,
2001-11-15,-1.43, -2.09, 14.11, 2.95, 2.27, 11.48, repro,
2001-11-16,-1.52, -1.27, -0.30, 2.89, 2.27, 11.33, repro,
2001-11-17,-0.54, -4.36, 7.70, 3.04, 2.36, 11.74, repro,
2001-11-18,1.91, -2.47, -4.85, 4.11, 3.56, 17.87, repro,
2001-11-19,4.81, -3.04, -1.65, 6.68, 4.68, 27.51, repro,
2001-11-20,0.65, -3.98, -2.51, 4.59, 3.51, 19.14, repro,
2001-11-21,-3.36, -4.19, 11.11, 4.20, 3.53, 18.29, repro,
2001-11-22,-2.33, -4.04, -6.21, 4.47, 3.65, 19.11, repro,
2001-11-23,0.96, -1.84, 19.02, 8.81, 7.71, 45.42, repro,
2001-11-29,-2.51, -4.39, -25.34, 11.23, 10.55, 52.25, repro,
2001-11-30,-4.97, -5.86, 7.95, 10.84, 9.49, 55.49, repro,
2001-12-01,1.09, -6.30, 7.58, 13.81, 13.39, 120.28, repro,
2001-12-02,5.62, 1.06, -15.43, 16.37, 11.04, 86.21, repro,
2001-12-03,5.30, -1.46, -33.50, 16.42, 14.73, 88.64, repro,
2001-12-04,2.15, -4.04, -38.06, 13.37, 13.47, 87.24, repro,
2001-12-05,-1.87, -20.71, 21.35, 38.75, 46.20, 186.19, repro,
2001-12-06,-6.36, -3.55, 19.02, 13.38, 10.30, 68.70, repro,
2001-12-07,-6.10, -9.82, -38.55, 29.37, 28.16, 140.64, repro,
2001-12-17,-0.74, -0.92, -4.57, 2.26, 1.73, 7.73, repro,
2001-12-18,0.13, -1.56, -4.22, 2.29, 1.77, 7.93, repro,
2001-12-19,-0.33, -3.22, -7.07, 2.28, 1.71, 7.74, repro,
2001-12-20,-0.27, -1.67, -4.27, 2.27, 1.69, 7.69, repro,
2001-12-21,0.34, -2.13, -1.70, 2.26, 1.75, 7.77, repro,
2001-12-22,-0.63, -1.84, -7.72, 2.39, 1.84, 8.28, repro,
2001-12-23,-0.37, -1.76, -13.60, 2.23, 1.72, 7.68, repro,
2001-12-24,0.49, -0.97, -21.31, 2.43, 1.88, 8.40, repro,
2001-12-25,-0.09, -1.14, -14.65, 2.29, 1.72, 7.81, repro,
2001-12-26,0.10, -1.52, -10.63, 2.28, 1.70, 7.71, repro,
2001-12-27,0.15, -1.68, -8.58, 2.27, 1.70, 7.73, repro,
2001-12-28,0.12, -1.31, -3.47, 2.26, 1.71, 7.75, repro,
2001-12-29,0.16, -1.32, -2.31, 2.25, 1.70, 7.72, repro,
2001-12-30,0.39, -1.26, -4.02, 2.24, 1.72, 7.69, repro,
2001-12-31,0.80, -0.42, -3.87, 2.37, 1.79, 7.99, repro,
2002-01-01,-0.36, -1.45, -7.95, 2.34, 1.80, 7.99, repro,
2002-01-02,-0.08, -1.84, -0.70, 2.38, 1.82, 8.20, repro,
2002-01-03,-1.28, -3.46, 3.63, 2.45, 1.84, 8.25, repro,
2002-01-04,0.44, -2.10, -3.57, 2.35, 1.80, 8.00, repro,
2002-01-05,1.11, -0.51, -2.79, 2.33, 1.76, 7.96, repro,
2002-01-06,-0.92, -1.95, -0.58, 2.22, 1.73, 7.80, repro,
2002-01-07,-0.57, -1.89, -6.99, 2.22, 1.73, 7.79, repro,
2002-01-08,-0.15, -1.13, 2.62, 2.47, 1.92, 8.69, repro,
2002-01-09,0.55, -1.93, 1.96, 2.22, 1.69, 7.76, repro,
2002-01-10,0.96, -2.85, -6.42, 2.39, 1.87, 8.55, repro,
2002-01-11,0.31, -1.96, -16.97, 2.39, 1.89, 8.55, repro,
2002-01-12,2.28, -0.66, -10.58, 2.28, 1.73, 7.75, repro,
2002-01-13,-0.36, -2.53, 2.27, 2.53, 1.90, 8.67, repro,
2002-01-14,1.51, -1.97, -3.18, 2.40, 1.84, 8.22, repro,
2002-01-15,2.14, -2.01, -4.62, 2.26, 1.79, 7.86, repro,
2002-01-16,0.35, -1.82, -4.14, 2.43, 1.92, 8.59, repro,
2002-01-17,0.81, -1.83, -6.99, 2.31, 1.83, 8.11, repro,
2002-01-18,0.91, -2.32, -4.26, 2.18, 1.73, 7.58, repro,
2002-01-19,-0.18, -1.77, -1.57, 2.14, 1.65, 7.35, repro,
2002-01-20,0.32, -3.60, -0.64, 2.13, 1.67, 7.32, repro,
2002-01-21,-1.72, -2.03, 1.31, 2.14, 1.67, 7.30, repro,
2002-01-22,0.62, -2.78, -3.26, 2.27, 1.87, 8.11, repro,
2002-01-23,0.06, -1.57, -3.86, 2.17, 1.69, 7.46, repro,
2002-01-24,-0.05, -2.19, -6.36, 2.19, 1.73, 7.58, repro,
2002-01-25,0.55, -1.70, -1.99, 2.27, 1.73, 7.70, repro,
2002-01-26,1.34, -1.79, 3.08, 2.13, 1.64, 7.28, repro,
2002-01-27,-0.45, -2.56, -6.42, 2.23, 1.69, 7.58, repro,
2002-01-28,0.39, -1.53, -5.63, 2.17, 1.70, 7.52, repro,
2002-01-29,1.15, -1.11, -5.67, 2.30, 1.75, 7.85, repro,
2002-01-30,0.49, -1.94, -7.83, 2.31, 1.78, 7.83, repro,
2002-01-31,1.24, -1.42, -8.92, 2.14, 1.67, 7.35, repro,
2002-02-01,-0.27, -1.67, -10.76, 2.25, 1.82, 7.78, repro,
2002-02-02,1.02, -2.56, -7.28, 2.30, 1.78, 7.77, repro,
2002-02-03,0.15, -2.79, -7.31, 2.15, 1.66, 7.43, repro,
2002-02-04,0.80, -2.87, -6.81, 2.41, 1.82, 8.10, repro,
2002-02-05,0.24, -1.27, -3.54, 2.37, 1.92, 8.31, repro,
2002-02-06,0.98, -1.79, 0.90, 2.26, 1.81, 7.87, repro,
2002-02-07,-0.12, -1.76, -4.78, 2.29, 1.77, 7.76, repro,
2002-02-08,0.33, -2.62, -8.15, 2.35, 1.86, 8.14, repro,
2002-02-09,0.30, -1.82, -12.85, 2.25, 1.71, 7.73, repro,
2002-02-10,1.67, -1.99, -18.31, 2.40, 1.95, 8.25, repro,
2002-02-11,-0.15, -1.25, -11.65, 2.36, 1.73, 7.94, repro,
2002-02-13,0.42, -1.00, -4.29, 2.25, 1.78, 7.87, repro,
2002-02-14,0.11, -1.57, -6.70, 2.59, 2.11, 8.78, repro,
2002-02-15,0.86, -2.10, -1.65, 2.51, 1.92, 8.47, repro,
2002-02-16,0.90, -0.58, -2.69, 2.40, 1.84, 8.47, repro,
2002-02-17,-0.18, 0.04, 1.98, 2.18, 1.79, 7.78, repro,
2002-02-18,0.95, -0.59, -3.81, 2.42, 2.00, 8.57, repro,
2002-02-19,-1.47, -1.45, -0.64, 2.57, 1.94, 9.10, repro,
2002-02-20,-1.26, -0.79, 6.37, 2.45, 1.89, 8.58, repro,
2002-02-21,-0.21, -1.35, -7.67, 2.60, 1.99, 9.22, repro,
2002-02-22,-0.48, -2.27, -9.87, 2.39, 1.91, 8.36, repro,
2002-02-23,0.40, 0.33, -3.19, 2.29, 1.88, 8.02, repro,
2002-02-24,0.70, -2.91, -3.11, 2.35, 1.87, 8.19, repro,
2002-02-25,1.07, -2.18, -3.59, 2.21, 1.75, 7.71, repro,
2002-02-26,1.48, -1.77, -15.68, 2.31, 1.88, 8.28, repro,
2002-02-27,1.12, -0.81, -6.51, 2.54, 2.05, 9.17, repro,
2002-02-28,1.21, -2.15, 2.03, 2.32, 1.96, 8.32, repro,
2002-03-01,2.90, -1.92, -4.79, 2.27, 1.81, 8.05, repro,
2002-03-02,0.88, -1.07, -5.22, 2.16, 1.75, 7.77, repro,
2002-03-03,1.64, -1.12, -10.40, 2.24, 1.86, 8.06, repro,
2002-03-04,1.11, -1.03, -9.47, 2.10, 1.64, 7.41, repro,
2002-03-05,1.34, -0.95, -7.12, 2.13, 1.69, 7.54, repro,
2002-03-06,2.56, 0.15, -8.41, 2.15, 1.76, 7.67, repro,
2002-03-07,1.40, -0.96, -3.14, 2.12, 1.67, 7.45, repro,
2002-03-08,1.27, -0.33, -3.20, 2.14, 1.72, 7.56, repro,
2002-03-09,1.39, -0.77, -11.36, 2.14, 1.69, 7.49, repro,
2002-03-10,-0.21, 0.88, -9.10, 2.12, 1.64, 7.37, repro,
2002-03-11,-0.67, 0.12, 0.68, 2.17, 1.74, 7.72, repro,
2002-03-12,0.23, -0.81, 2.82, 2.19, 1.70, 7.65, repro,
2002-03-13,1.33, -1.80, -1.53, 2.12, 1.68, 7.54, repro,
2002-03-14,1.92, -0.84, -6.64, 2.11, 1.67, 7.41, repro,
2002-03-15,1.03, -1.16, -4.12, 2.12, 1.72, 7.58, repro,
2002-03-16,2.04, -0.06, -3.57, 2.10, 1.64, 7.40, repro,
2002-03-17,0.78, -0.42, -4.72, 2.13, 1.69, 7.57, repro,
2002-03-18,0.72, -1.07, -2.79, 2.22, 1.81, 7.95, repro,
2002-03-19,1.82, 0.34, -14.03, 2.20, 1.76, 7.86, repro,
2002-03-20,1.74, -1.83, -10.58, 2.12, 1.71, 7.56, repro,
2002-03-21,2.50, 0.02, -12.58, 2.11, 1.69, 7.52, repro,
2002-03-22,2.36, 0.42, -7.30, 2.13, 1.69, 7.57, repro,
2002-03-23,1.41, -0.36, 0.30, 2.23, 1.73, 7.73, repro,
2002-03-24,1.88, -0.45, -10.24, 2.30, 1.81, 7.89, repro,
2002-03-25,1.60, -1.31, -9.06, 2.18, 1.69, 7.58, repro,
2002-03-26,0.96, -0.46, -12.40, 2.13, 1.63, 7.39, repro,
2002-03-27,1.19, -1.11, -0.05, 2.21, 1.75, 7.78, repro,
2002-03-28,1.48, 0.12, -1.17, 2.23, 1.78, 7.87, repro,
2002-03-29,1.18, 0.10, -13.20, 2.16, 1.69, 7.65, repro,
2002-03-30,1.72, 0.07, -14.99, 2.19, 1.67, 7.69, repro,
2002-03-31,1.74, -2.11, -3.38, 2.19, 1.68, 7.67, repro,
2002-04-01,2.60, -0.47, -11.50, 2.16, 1.69, 7.62, repro,
2002-04-02,2.33, -0.54, -8.86, 2.15, 1.65, 7.50, repro,
2002-04-03,2.16, -0.05, -5.44, 2.18, 1.69, 7.70, repro,
2002-04-04,2.28, -0.29, -10.36, 2.20, 1.69, 7.72, repro,
2002-04-05,1.35, -0.69, -14.52, 2.35, 1.76, 8.00, repro,
2002-04-06,2.17, -0.27, 0.95, 2.23, 1.72, 7.82, repro,
2002-04-07,2.14, -0.16, 0.78, 2.14, 1.65, 7.48, repro,
2002-04-08,2.13, -0.45, -3.32, 2.30, 1.82, 8.14, repro,
2002-04-09,1.85, 0.11, -8.24, 2.26, 1.78, 8.03, repro,
2002-04-10,2.33, 0.09, -7.37, 2.24, 1.75, 7.93, repro,
2002-04-11,1.75, -0.64, -2.44, 2.18, 1.67, 7.51, repro,
2002-04-12,1.68, -0.46, -8.06, 2.50, 1.95, 8.66, repro,
2002-04-13,1.91, -0.57, -5.59, 2.21, 1.72, 7.71, repro,
2002-04-14,1.89, -1.88, 0.67, 2.22, 1.70, 7.74, repro,
2002-04-15,1.02, -0.14, 3.77, 2.28, 1.79, 8.07, repro,
2002-04-16,2.29, -1.18, 5.70, 2.23, 1.71, 7.83, repro,
2002-04-17,0.82, -1.51, 2.09, 2.34, 1.86, 8.26, repro,
2002-04-18,2.72, -1.35, -2.50, 2.28, 1.80, 8.18, repro,
2002-04-19,0.64, -0.86, -4.65, 2.18, 1.67, 7.61, repro,
2002-04-20,1.15, -1.23, 1.58, 2.19, 1.71, 7.77, repro,
2002-04-21,1.64, 0.20, 0.02, 2.13, 1.65, 7.46, repro,
2002-04-22,2.10, -1.04, -4.40, 2.19, 1.73, 7.86, repro,
2002-04-23,2.15, 0.03, -0.54, 2.16, 1.67, 7.63, repro,
2002-04-24,2.90, -0.89, -3.67, 2.12, 1.65, 7.42, repro,
2002-04-25,1.92, -1.02, 0.07, 2.16, 1.68, 7.64, repro,
2002-04-26,1.11, -0.43, 2.57, 2.20, 1.68, 7.70, repro,
2002-04-27,1.13, -1.08, 0.13, 2.14, 1.64, 7.47, repro,
2002-04-28,1.72, -0.26, -5.02, 2.13, 1.64, 7.41, repro,
2002-04-29,1.29, -1.48, -1.79, 2.15, 1.65, 7.50, repro,
2002-04-30,-0.05, -1.96, -0.30, 2.22, 1.67, 7.66, repro,
2002-05-01,1.77, -0.65, -1.42, 2.18, 1.66, 7.56, repro,
2002-05-02,-0.16, -2.35, -1.93, 2.14, 1.61, 7.41, repro,
2002-05-03,-0.83, -2.30, -3.61, 2.17, 1.65, 7.53, repro,
2002-05-04,0.01, -2.42, -7.94, 2.12, 1.61, 7.36, repro,
2002-05-05,-1.21, -2.67, -4.09, 2.14, 1.61, 7.38, repro,
2002-05-06,-1.91, -3.25, -4.36, 2.23, 1.73, 7.78, repro,
2002-05-07,-0.31, -2.22, -3.82, 2.21, 1.69, 7.58, repro,
2002-05-08,-1.24, -2.44, -5.80, 2.15, 1.62, 7.39, repro,
2002-05-09,-1.11, -2.86, -3.45, 2.14, 1.60, 7.31, repro,
2002-05-10,-1.15, -2.59, -1.52, 2.13, 1.61, 7.32, repro,
2002-05-11,-1.87, -3.09, -6.79, 2.15, 1.60, 7.33, repro,
2002-05-12,-2.30, -2.14, -7.23, 2.17, 1.65, 7.42, repro,
2002-05-13,-1.64, -1.93, -15.10, 2.18, 1.66, 7.51, repro,
2002-05-14,-2.20, -3.16, -1.78, 2.17, 1.66, 7.44, repro,
2002-05-15,-2.63, -3.54, -2.92, 2.17, 1.68, 7.50, repro,
2002-05-16,-1.94, -2.49, -1.79, 2.16, 1.60, 7.33, repro,
2002-05-17,-2.46, -2.77, -5.78, 2.22, 1.64, 7.61, repro,
2002-05-18,-2.52, -1.92, -3.50, 2.24, 1.69, 7.79, repro,
2002-05-19,-3.02, -2.93, 0.02, 2.17, 1.63, 7.37, repro,
2002-05-20,-2.83, -1.85, 2.22, 2.17, 1.63, 7.43, repro,
2002-05-21,-4.03, -3.22, 0.22, 2.15, 1.61, 7.29, repro,
2002-05-22,-3.16, -3.99, 0.74, 2.18, 1.61, 7.37, repro,
2002-05-23,-3.33, -2.88, 1.21, 2.17, 1.62, 7.40, repro,
2002-05-24,-2.95, -1.72, -0.03, 2.20, 1.65, 7.51, repro,
2002-05-25,-3.58, -2.16, -8.66, 2.18, 1.65, 7.48, repro,
2002-05-26,-4.93, -3.59, -5.13, 2.19, 1.67, 7.56, repro,
2002-05-27,-2.50, -2.95, 1.19, 2.17, 1.62, 7.36, repro,
2002-05-28,-5.38, -3.17, 2.54, 2.18, 1.61, 7.38, repro,
2002-05-29,-5.26, -2.43, 2.96, 2.22, 1.66, 7.62, repro,
2002-05-30,-4.41, -3.46, -2.34, 2.24, 1.67, 7.76, repro,
2002-05-31,-3.64, -3.20, 2.88, 2.27, 1.69, 7.77, repro,
2002-06-01,-4.05, -3.77, 5.27, 2.29, 1.76, 8.00, repro,
2002-06-02,-4.40, -3.82, 4.20, 2.19, 1.63, 7.41, repro,
2002-06-03,-5.16, -3.84, 0.51, 2.24, 1.64, 7.65, repro,
2002-06-04,-3.41, -3.79, -1.63, 2.18, 1.66, 7.52, repro,
2002-06-05,-4.55, -3.00, -6.43, 2.17, 1.67, 7.51, repro,
2002-06-06,-4.40, -4.42, -2.79, 2.16, 1.60, 7.29, repro,
2002-06-07,-3.34, -4.20, 0.22, 2.22, 1.71, 7.74, repro,
2002-06-08,-4.65, -3.38, 0.91, 2.19, 1.67, 7.56, repro,
2002-06-09,-4.46, -3.43, 3.47, 2.20, 1.69, 7.68, repro,
2002-06-10,-4.01, -4.56, 4.70, 2.19, 1.69, 7.66, repro,
2002-06-11,-4.08, -3.28, -3.30, 2.17, 1.67, 7.55, repro,
2002-06-12,-3.69, -3.36, 2.24, 2.20, 1.71, 7.76, repro,
2002-06-13,-3.60, -3.23, -5.72, 2.21, 1.73, 7.83, repro,
2002-06-14,-6.62, -2.98, 0.05, 2.23, 1.81, 8.04, repro,
2002-06-15,-5.14, -4.19, 2.16, 2.19, 1.67, 7.62, repro,
2002-06-16,-4.47, -2.53, 2.89, 2.17, 1.67, 7.56, repro,
2002-06-17,-5.84, -4.47, 10.59, 2.19, 1.68, 7.65, repro,
2002-06-18,-6.37, -4.26, 4.60, 2.26, 1.73, 7.78, repro,
2002-06-19,-4.65, -4.42, 3.71, 2.17, 1.67, 7.48, repro,
2002-06-20,-5.08, -3.96, 0.92, 2.15, 1.62, 7.39, repro,
2002-07-03,0.18, 3.85, -3.97, 10.21, 6.49, 32.33, repro,
2002-07-04,-6.62, -5.02, 3.58, 2.16, 1.67, 7.50, repro,
2002-07-05,-6.64, -4.93, 1.57, 2.17, 1.61, 7.33, repro,
2002-07-06,-6.94, -3.83, 7.55, 2.16, 1.62, 7.36, repro,
2002-07-07,-6.19, -6.49, 15.65, 2.17, 1.62, 7.40, repro,
2002-07-08,-5.25, -4.69, 5.09, 2.20, 1.63, 7.54, repro,
2002-07-09,-5.49, -3.90, -1.90, 2.27, 1.78, 7.97, repro,
2002-07-10,-6.85, -4.78, 1.58, 2.22, 1.64, 7.54, repro,
2002-07-11,-6.90, -4.43, -3.14, 2.18, 1.61, 7.37, repro,
2002-07-12,-6.56, -4.00, -2.52, 2.26, 1.66, 7.57, repro,
2002-07-13,-6.43, -4.46, 0.20, 2.18, 1.63, 7.47, repro,
2002-07-14,-7.01, -5.15, 1.97, 2.21, 1.64, 7.51, repro,
2002-07-15,-6.40, -4.77, 4.92, 2.29, 1.72, 7.87, repro,
2002-07-16,-7.51, -4.18, 12.17, 2.18, 1.61, 7.39, repro,
2002-07-17,-4.89, -5.00, -2.21, 2.25, 1.68, 7.70, repro,
2002-07-18,-6.02, -4.62, -4.48, 2.35, 1.72, 7.75, repro,
2002-07-19,-6.46, -5.31, 2.75, 2.22, 1.68, 7.55, repro,
2002-07-20,-7.54, -5.39, 0.40, 2.24, 1.66, 7.56, repro,
2002-07-21,-7.96, -5.33, -1.85, 2.30, 1.70, 7.72, repro,
2002-07-22,-6.21, -4.24, -2.78, 2.18, 1.62, 7.41, repro,
2002-07-23,-5.70, -3.55, -1.54, 2.31, 1.78, 8.06, repro,
2002-07-24,-6.90, -4.99, 2.19, 2.18, 1.68, 7.54, repro,
2002-07-25,-5.99, -5.04, -3.23, 2.21, 1.63, 7.46, repro,
2002-07-26,-7.47, -4.94, -2.33, 2.22, 1.67, 7.54, repro,
2002-07-27,-5.55, -4.53, 3.73, 2.27, 1.65, 7.55, repro,
2002-07-28,-6.03, -6.02, 2.90, 2.20, 1.67, 7.61, repro,
2002-07-29,-5.85, -4.54, -0.29, 2.37, 1.75, 7.87, repro,
2002-07-30,-4.92, -5.01, -0.10, 2.36, 1.75, 7.84, repro,
2002-07-31,-6.74, -6.42, -3.63, 2.39, 1.76, 7.91, repro,
2002-08-01,-5.93, -5.26, -7.87, 2.31, 1.65, 7.55, repro,
2002-08-02,-6.61, -5.79, -0.30, 2.29, 1.72, 7.81, repro,
2002-08-03,-6.27, -6.25, -2.26, 2.26, 1.65, 7.55, repro,
2002-08-04,-5.24, -4.90, -0.81, 2.36, 1.75, 7.91, repro,
2002-08-05,-6.35, -5.45, 1.91, 2.30, 1.66, 7.51, repro,
2002-08-06,-6.24, -5.18, 1.55, 2.23, 1.64, 7.44, repro,
2002-08-07,-5.14, -4.78, -9.07, 2.37, 1.75, 7.89, repro,
2002-08-08,-6.45, -5.07, -11.06, 2.20, 1.63, 7.44, repro,
2002-08-09,-7.61, -5.27, -1.85, 2.35, 1.69, 7.69, repro,
2002-08-10,-6.43, -5.42, -4.16, 2.29, 1.66, 7.56, repro,
2002-08-11,-6.70, -4.88, -1.92, 2.33, 1.69, 7.65, repro,
2002-08-12,-8.46, -6.56, -1.71, 2.39, 1.75, 7.92, repro,